Temp
17 17 16 17 18 18 18 19 20 19 19 20 20 21 21 21 21 22 23 21 21 23 24 23 23 21 21 21 21 20 19 20 21 20 17 16 16 17 16 16 17 18 18 17 18 18 18 18 18 18 17 17 17 17 17 17 17 17 17 17 17 17 17 17 17 18 17 17 17 17 17 17 17 17 17 17 17 17 17 18 18 18 18 18 18 18
17 17 17 18 18 18 18 19 19 19 19 20 21 21 21 21 22 22 22 21 21 23 22 21 22 21 21 22 22 20 19 19 20 18 16 16 17 17 16 16 17 17 17 16 17 18 18 18 18 18 17 17 17 17 17 17 17 17 17 17 17 17 17 17 18 18 17 17 17 17 17 17 17 17 17 17 17 17 17 18 18 18 18 18 18 18
16 16 17 17 17 18 18 19 20 19 19 20 20 21 21 21 21 21 22 21 21 23 22 21 22 21 20 21 21 19 18 18 18 17 17 18 17 16 17 17 17 17 16 16 17 18 18 18 18 18 17 17 17 17 17 17 17 17 17 17 17 17 18 18 17 17 17 17 17 17 17 17 17 17 17 17 17 17 17 17 17 17 17 17 17 17
15 16 17 17 17 18 18 19 20 20 19 20 20 21 20 20 21 21 22 21 20 21 21 22 22 20 19 19 18 18 18 18 18 17 18 18 18 17 17 17 17 17 16 16 17 18 18 18 18 17 17 17 17 17 17 17 17 17 17 17 17 17 17 17 17 17 18 18 18 17 17 17 17 17 17 17 17 17 17 17 17 17 17 17 17 17
16 17 17 17 17 18 18 18 19 20 19 19 19 21 21 20 21 21 21 21 21 20 21 22 22 20 19 19 18 17 17 18 18 18 18 18 18 17 17 17 17 16 17 17 18 18 17 17 17 17 17 17 17 17 17 17 17 17 17 17 17 18 18 18 18 18 18 18 18 17 17 17 17 17 17 17 17 17 17 16 16 17 17 17 17 16
16 16 17 17 18 18 18 18 19 20 20 19 19 20 21 21 21 21 21 21 21 21 21 22 21 20 19 20 19 17 18 18 19 18 17 18 18 17 18 18 17 17 18 17 17 17 17 17 17 17 17 17 17 16 16 17 17 17 17 17 17 17 17 17 18 18 18 18 17 17 17 17 17 17 16 16 16 16 16 16 16 16 16 17 16 16
16 16 17 18 18 18 18 18 19 20 20 19 19 20 20 21 21 21 22 21 21 21 21 20 21 20 19 20 19 18 18 19 19 19 17 18 18 18 18 18 17 18 18 17 16 17 17 17 16 16 16 16 16 16 16 17 17 17 17 17 17 17 17 18 17 18 18 18 17 17 17 17 17 16 15 15 15 15 15 16 16 16 16 16 15 15
16 16 17 18 18 18 18 18 18 19 20 19 19 19 20 21 21 21 21 21 21 21 20 20 21 21 20 20 20 18 19 19 19 18 17 18 18 18 19 18 18 18 18 17 17 16 16 16 16 16 16 16 15 16 17 17 17 17 17 17 17 17 17 17 17 17 17 17 17 17 17 16 16 15 15 15 15 15 15 15 15 15 14 14 14 14
16 16 16 17 18 18 18 19 18 19 20 19 19 20 21 21 21 21 21 21 21 20 21 20 21 21 20 20 19 19 19 19 19 18 17 18 18 19 19 18 18 18 18 17 17 16 15 16 15 15 15 15 15 15 16 17 16 17 17 17 17 17 17 17 17 17 17 17 17 17 16 16 15 15 15 15 15 15 14 14 14 14 14 13 13 13
16 17 17 18 18 18 18 19 18 19 20 19 19 20 21 21 21 21 21 21 20 20 21 20 20 21 20 19 18 19 19 19 19 18 18 18 19 20 19 19 19 18 18 17 16 16 16 15 15 15 14 15 14 15 15 16 16 16 16 16 16 16 16 16 16 16 16 16 16 16 16 16 15 15 15 15 14 14 14 14 14 13 13 13 13 13
16 17 17 18 18 18 18 18 19 20 20 19 19 20 20 20 20 20 20 21 20 20 20 20 21 21 20 19 19 19 20 20 20 19 18 18 19 19 19 19 18 17 17 16 16 15 15 15 15 14 14 14 14 14 15 15 15 16 16 16 16 15 15 15 15 15 15 15 16 15 15 15 14 14 14 14 14 14 14 14 13 13 13 13 13 13
16 16 17 18 18 18 18 18 19 19 19 19 20 20 20 19 20 20 20 20 19 20 20 20 21 21 20 20 20 20 21 21 21 19 18 18 18 19 19 19 18 17 16 16 15 15 15 15 14 14 14 14 14 15 15 15 15 15 15 15 15 14 14 15 15 15 15 15 14 14 13 13 13 13 13 13 13 13 13 13 12 12 12 12 12 12
17 16 16 17 18 19 19 18 18 18 19 20 21 20 20 19 19 19 19 19 19 20 19 19 20 20 20 21 20 21 21 21 22 20 18 18 18 19 19 18 17 17 16 15 14 14 14 15 14 14 14 14 14 14 14 15 15 14 14 14 14 13 14 14 14 14 14 14 13 12 12 12 12 12 12 12 11 11 12 12 11 11 11 11 11 11
16 16 16 17 18 19 20 19 18 18 19 21 21 20 20 19 18 18 18 19 19 19 18 18 20 20 20 20 20 20 21 22 22 21 19 19 19 19 18 17 16 16 15 15 14 14 14 14 14 14 14 14 13 13 13 14 14 14 14 14 13 13 13 13 13 13 13 12 12 12 11 11 11 11 11 11 10 10 11 10 10 10 10 10 10 10
15 15 16 17 17 19 20 20 20 19 19 20 21 21 20 20 19 19 19 19 19 19 18 19 20 20 20 19 18 19 20 21 21 20 20 19 18 18 17 16 16 16 15 15 14 14 14 14 14 14 13 13 13 13 13 13 13 13 12 12 12 12 12 12 12 12 12 11 11 11 10 10 10 10 10 10 9 9 10 10 10 10 10 10 10 10
16 15 16 17 17 19 19 19 20 20 19 19 20 21 20 21 20 19 18 19 19 20 19 19 19 18 19 18 17 18 19 20 20 20 19 18 17 17 16 16 16 15 15 15 14 14 14 14 14 13 13 13 13 13 13 13 12 12 12 12 12 12 12 12 11 11 11 10 10 10 9 9 9 9 9 9 9 9 9 9 9 9 9 9 9 9
16 16 16 17 17 19 19 19 20 20 20 19 19 20 20 21 21 19 17 17 18 20 20 19 19 18 18 18 17 18 18 19 19 18 18 17 16 16 16 16 16 15 14 15 15 14 14 14 13 13 13 13 12 12 12 12 12 12 12 11 11 11 11 11 11 10 10 10 9 9 9 9 9 9 9 8 8 8 9 8 8 8 8 8 8 8
16 16 16 17 17 18 19 20 20 20 20 19 19 20 20 20 20 20 19 18 18 20 19 18 18 18 19 19 18 17 18 18 18 17 17 16 16 16 16 15 15 15 15 14 14 14 13 13 13 13 13 12 12 12 12 12 12 12 12 11 11 11 10 10 10 10 9 9 9 9 9 8 8 8 8 8 9 9 9 9 8 7 7 7 7 8
16 16 16 17 18 18 18 19 19 19 20 20 20 21 21 20 20 19 19 19 19 19 19 18 17 18 20 19 17 17 18 17 17 17 17 16 16 16 15 15 14 14 14 13 13 13 13 13 13 12 12 12 12 12 12 12 12 12 12 11 11 10 10 10 9 9 9 8 8 8 8 8 8 8 8 8 9 8 8 8 7 7 6 6 7 7
16 16 16 17 18 18 18 18 19 19 19 20 21 21 20 20 20 20 19 20 20 19 19 19 18 18 20 19 18 18 18 17 17 17 16 17 16 15 15 15 14 14 14 13 13 13 13 13 12 12 12 11 11 12 11 11 11 11 11 11 10 10 9 9 9 9 8 8 8 8 7 7 7 7 7 7 8 8 7 7 8 7 7 6 6 6
16 16 16 17 17 17 18 18 19 19 19 19 20 20 20 20 20 20 19 19 20 20 19 19 19 19 20 20 19 18 18 18 18 17 17 17 16 15 15 15 14 14 14 13 13 12 12 12 12 11 11 11 11 11 11 11 11 10 10 10 10 9 9 9 8 8 8 8 7 7 7 7 7 7 7 7 7 7 7 8 8 8 8 7 5 5
16 16 16 16 16 17 18 18 20 20 20 20 20 20 20 20 20 20 19 18 19 19 19 19 20 20 19 18 19 19 19 19 18 17 17 17 16 15 15 15 15 14 14 13 13 12 12 12 11 11 11 11 11 11 11 10 10 10 10 9 9 9 9 9 8 8 8 7 7 7 7 7 6 7 7 7 7 7 7 8 8 8 8 7 5 5
16 16 16 16 16 17 18 18 19 20 20 20 20 20 20 20 20 20 19 18 18 18 18 19 20 20 17 16 17 19 20 19 18 17 16 16 15 15 15 15 15 14 14 13 12 12 12 12 12 11 11 11 11 11 10 10 10 10 9 9 9 9 9 8 8 8 8 7 7 7 7 6 6 7 7 7 7 7 7 7 7 7 8 6 4 5
16 16 16 16 16 17 18 17 18 20 20 19 20 20 20 20 21 20 19 19 19 19 19 19 20 19 17 15 17 19 19 19 18 16 16 15 14 14 14 14 14 14 13 13 12 12 12 12 12 12 11 11 11 10 10 10 10 9 9 9 9 9 8 8 8 8 8 7 7 7 6 6 6 6 6 6 6 7 7 7 6 7 7 6 5 5
16 16 16 16 16 16 17 17 17 18 19 19 20 20 20 20 20 19 18 19 20 20 20 20 20 19 17 16 17 18 18 18 17 16 15 14 14 14 14 14 13 13 13 13 12 12 12 12 11 11 11 11 11 11 10 10 10 9 9 9 9 9 8 8 8 8 7 7 7 7 6 6 6 6 6 6 6 6 6 7 6 6 6 6 5 4
16 15 16 16 15 15 16 16 16 17 18 19 19 19 20 20 19 19 19 19 20 19 19 21 20 17 16 16 17 18 17 17 16 15 14 14 14 14 13 13 13 13 13 13 12 12 12 11 11 11 11 11 11 10 10 10 9 9 9 8 9 8 8 8 8 8 7 7 7 7 6 6 6 6 6 6 6 6 6 6 6 5 5 5 5 4
16 15 16 17 17 16 17 17 17 17 18 18 19 19 20 20 20 20 19 19 19 19 19 20 19 17 16 16 17 17 16 16 15 14 14 14 14 13 13 13 13 13 13 13 12 12 11 11 11 11 10 10 10 10 9 9 9 9 9 8 8 8 8 8 8 7 7 7 7 6 6 6 6 6 6 5 6 6 6 6 6 5 5 5 5 4
16 16 16 17 17 17 18 17 16 17 19 19 19 19 19 19 19 20 19 19 19 19 19 19 18 18 17 16 16 16 15 15 14 14 14 13 13 13 13 13 12 12 12 12 12 12 11 11 10 10 10 10 10 9 9 9 9 8 8 8 8 8 8 8 7 7 7 7 6 6 6 6 6 6 6 5 6 6 6 6 6 5 5 5 5 5
17 17 16 16 16 16 16 16 16 16 18 18 18 19 19 18 18 19 20 19 19 20 21 18 17 20 19 16 17 16 15 15 14 14 14 13 13 13 12 12 12 12 12 12 12 11 10 10 10 10 10 10 10 9 9 8 8 8 8 8 8 8 8 8 7 7 7 6 6 6 6 6 6 6 6 6 6 6 6 6 6 5 5 5 5 5
17 17 16 16 16 15 14 14 14 15 16 16 16 17 18 18 18 19 19 19 19 21 21 18 17 19 19 17 17 17 15 15 14 13 13 13 12 12 12 12 12 12 12 12 12 11 10 10 10 10 10 10 9 9 8 8 8 8 8 8 8 8 8 8 7 7 6 6 6 6 6 6 6 6 6 6 5 5 5 6 6 5 5 5 5 5
17 16 15 16 16 15 13 13 13 14 16 16 15 14 16 18 18 19 19 19 19 20 19 17 17 18 17 17 17 16 15 15 14 13 13 12 12 12 12 12 12 11 12 11 11 10 9 9 10 10 10 10 9 9 8 8 8 8 8 8 8 7 7 8 7 7 6 6 6 6 6 6 6 6 5 5 5 5 5 5 5 5 5 5 5 5
17 15 13 15 16 15 14 13 14 15 15 16 15 14 15 17 17 18 19 18 18 19 18 17 18 18 17 16 16 15 14 14 13 13 13 12 12 12 12 12 11 11 11 11 10 9 9 9 9 10 9 9 9 8 8 8 8 8 7 7 7 7 7 7 7 6 6 6 6 6 5 5 5 5 5 5 5 5 5 5 5 5 5 5 5 5
17 16 15 16 16 15 14 13 15 16 17 17 16 14 14 15 16 17 17 16 18 19 18 18 20 19 17 16 15 14 14 13 13 13 13 12 13 13 12 12 11 11 11 10 9 9 9 9 9 9 9 9 8 8 8 8 8 7 7 7 7 7 7 7 7 6 6 5 5 5 5 5 5 5 5 5 5 5 5 5 5 5 5 5 5 5
16 17 16 16 17 16 14 14 15 17 17 16 14 12 12 14 14 16 16 15 16 17 17 18 19 17 16 15 14 14 14 14 13 14 13 13 13 13 12 12 11 11 10 9 9 9 9 9 9 8 8 8 8 7 8 8 7 7 7 7 7 7 7 6 6 6 5 5 5 5 5 5 5 5 5 5 5 5 5 5 5 5 5 5 5 5
17 17 15 14 16 16 14 15 16 16 16 14 12 12 12 12 12 13 13 13 13 14 14 16 16 16 16 16 15 14 14 14 14 14 14 14 14 13 12 12 11 11 10 9 9 9 9 9 8 8 7 7 7 7 8 7 7 7 7 7 7 7 6 6 6 5 5 5 5 5 5 5 4 4 4 5 5 5 5 5 5 5 4 4 4 4
17 16 15 14 14 15 15 16 16 16 15 13 12 12 12 12 12 13 14 14 13 13 14 15 16 16 16 16 15 14 14 14 13 13 14 14 13 13 13 12 12 11 10 10 9 9 9 8 8 7 7 7 7 7 7 7 7 7 6 6 6 6 6 6 5 5 5 4 4 4 4 4 4 4 4 5 5 5 5 5 4 4 4 4 4 4
16 16 16 15 13 14 16 16 16 16 15 14 14 13 12 13 13 15 16 16 14 13 14 15 15 15 15 14 13 13 13 12 12 12 13 13 13 13 13 13 12 11 10 10 9 8 8 8 7 7 7 7 7 7 7 7 7 6 6 6 6 6 6 5 5 4 4 4 4 4 4 4 4 4 4 4 4 4 4 4 4 4 4 4 4 3
16 16 17 17 14 13 15 16 16 17 17 17 15 14 13 14 13 15 17 17 14 13 14 15 15 14 13 13 13 13 13 13 12 11 12 13 13 12 12 12 11 10 10 9 8 8 7 7 7 7 7 7 7 7 7 7 7 6 6 6 6 6 5 5 5 4 4 4 4 4 4 4 4 4 4 4 4 4 4 4 4 4 4 4 3 3
15 15 16 17 14 13 16 17 16 16 17 17 15 13 13 13 13 14 17 18 15 13 14 15 14 13 12 12 13 13 13 13 13 12 12 12 12 11 11 10 10 10 9 8 8 8 7 7 7 7 7 7 6 6 7 7 6 6 6 6 6 6 5 5 5 5 4 4 4 4 4 4 4 4 4 4 4 4 4 4 4 4 4 3 3 3
15 15 15 16 15 14 16 17 16 16 17 15 13 12 12 13 13 15 18 19 16 14 14 15 14 13 13 13 13 14 14 14 14 12 12 12 12 11 10 10 10 9 9 8 8 7 7 7 7 7 7 6 6 6 6 6 6 6 6 6 6 6 5 5 5 5 4 4 4 4 4 4 4 4 4 4 4 4 4 4 4 3 3 3 3 3
14 15 14 15 15 15 16 16 16 16 16 13 12 12 12 13 15 17 18 17 14 14 15 15 14 14 14 14 14 15 15 14 13 12 11 11 11 11 10 10 9 9 8 8 7 7 7 7 7 7 6 6 6 6 6 6 6 6 6 6 6 6 5 5 5 5 5 4 4 4 4 4 4 4 4 4 4 4 4 4 4 3 3 3 3 3
14 14 14 15 15 15 15 16 16 16 15 12 11 12 13 15 17 17 15 12 13 15 15 15 15 15 14 14 14 13 13 12 12 11 10 10 10 10 10 9 8 8 8 7 7 7 7 7 7 7 6 6 6 6 6 7 6 6 6 6 6 6 5 5 5 5 5 5 4 4 4 4 4 4 4 4 4 4 4 4 4 3 3 3 3 3
15 15 15 14 13 14 14 15 16 17 15 13 13 13 14 16 17 15 12 11 13 15 15 14 15 15 14 14 12 11 11 11 11 11 10 10 9 9 9 8 8 8 7 7 7 7 8 8 7 7 7 6 6 7 7 7 6 6 6 6 6 6 6 5 5 5 5 5 5 5 5 5 4 4 4 4 4 4 4 4 4 4 3 3 3 3
15 16 15 14 14 15 16 16 15 15 13 12 13 14 14 13 12 12 12 13 14 15 15 14 15 15 14 12 11 11 11 11 10 11 10 9 9 9 9 8 8 8 7 7 7 7 8 8 7 7 6 6 7 7 7 7 7 6 6 6 6 6 6 6 5 5 5 5 5 5 5 5 5 5 4 4 4 4 4 4 4 4 4 3 3 4
14 14 14 15 14 13 14 15 13 11 9 10 10 11 11 11 10 10 13 14 13 14 14 14 14 14 13 11 11 11 11 10 10 10 10 9 9 8 8 8 8 8 8 8 8 8 8 7 7 6 6 6 7 7 7 7 7 6 6 6 6 6 6 6 6 5 5 5 5 5 5 5 5 5 5 5 5 4 4 4 4 4 4 4 4 4
11 10 12 14 13 11 12 11 9 9 10 9 9 9 9 10 10 11 13 14 14 14 14 14 14 13 12 11 11 11 11 10 10 10 10 9 9 8 8 8 8 8 8 8 8 8 7 7 6 6 6 6 7 7 7 7 7 7 6 6 6 6 6 6 6 6 5 5 5 5 5 5 5 5 5 5 5 5 5 4 4 4 4 4 4 4
11 11 12 13 13 14 14 11 8 9 9 9 9 10 9 9 10 11 13 13 13 14 14 13 13 11 11 11 11 11 10 10 10 10 10 9 8 8 8 8 8 8 8 8 8 7 7 7 7 7 7 6 7 7 7 7 7 7 7 6 6 6 6 6 6 6 6 5 5 5 5 5 5 5 5 5 5 5 5 5 5 5 5 5 4 4
11 12 12 12 12 14 13 10 8 9 8 8 9 10 10 10 10 11 12 12 12 13 13 12 12 11 11 11 11 11 11 11 10 10 9 9 8 9 9 8 9 9 9 8 7 7 7 7 7 7 7 6 6 7 7 7 7 7 7 7 7 6 6 6 6 6 6 6 6 5 5 5 5 5 5 5 5 5 5 5 5 5 5 4 4 4
11 12 12 12 12 12 11 10 9 10 10 9 9 9 9 9 10 10 11 11 11 11 11 11 11 11 11 11 11 11 11 10 10 10 9 9 9 9 9 9 9 9 8 8 7 7 7 7 7 7 7 6 7 7 7 7 7 7 7 7 7 7 7 6 6 6 6 6 6 6 6 6 6 6 6 6 5 5 5 5 5 5 5 4 4 4
11 12 11 12 14 14 14 12 11 12 14 12 10 9 8 9 10 10 11 11 11 11 11 11 11 11 11 11 11 11 10 10 10 10 9 9 9 9 9 9 9 9 8 7 7 7 7 7 7 7 7 7 7 7 7 8 7 7 7 7 7 7 7 7 6 6 6 6 6 6 6 6 6 6 6 6 6 6 6 5 5 5 5 5 4 4
11 11 11 13 15 14 13 11 11 12 13 11 9 9 8 9 10 11 11 12 12 11 11 11 10 10 10 11 11 11 10 10 10 10 9 9 9 9 9 9 9 8 8 8 7 7 7 7 7 7 7 7 7 7 8 8 8 7 7 7 7 7 7 7 7 6 6 6 6 6 6 6 6 6 6 6 6 6 6 6 6 5 5 5 5 5
Height
759 765 765 759 756 759 762 760 762 767 765 767 771 771 771 771 770 768 765 765 764 763 767 767 768 777 777 772 772 773 776 776 774 781 789 791 794 800 807 809 807 805 803 802 802 803 804 805 805 806 807 809 810 812 814 815 817 817 819 820 821 822 823 824 825 826 828 829 830 831 832 833 833 834 834 835 836 836 836 837 837 837 837 837 837 836
760 761 757 753 755 758 762 763 763 767 768 767 768 769 772 770 767 766 765 765 764 763 769 773 773 777 775 770 772 775 781 781 779 788 794 796 798 799 803 805 806 808 806 805 806 805 805 805 806 807 808 809 811 813 814 816 817 818 819 820 821 822 823 824 825 827 828 829 830 831 832 833 834 834 835 835 836 836 837 837 837 837 837 837 836 836
762 758 753 754 758 760 764 764 762 766 769 769 768 768 771 771 768 767 764 766 764 761 770 774 773 779 779 775 777 779 784 785 784 789 791 792 796 797 798 798 803 810 810 809 809 807 806 806 806 807 808 810 812 813 815 816 817 818 819 819 821 822 823 824 825 826 828 829 830 831 832 833 834 834 835 836 836 837 837 837 837 837 837 836 836 836
761 755 752 757 759 761 765 764 763 766 769 770 769 768 771 773 772 768 765 767 767 766 771 772 773 782 785 783 785 785 786 787 786 789 789 790 793 794 795 795 801 808 810 810 809 807 808 807 806 808 809 811 813 814 815 817 818 818 819 819 821 822 823 824 825 826 827 828 830 831 832 833 834 835 836 836 837 837 837 837 837 837 837 836 836 836
755 752 752 757 757 759 765 766 764 766 769 772 771 768 769 772 771 769 768 768 768 770 769 768 776 786 787 786 790 790 787 787 786 789 793 793 793 794 795 797 801 804 805 808 808 807 808 808 807 808 809 811 813 814 816 818 819 819 819 820 821 822 823 824 825 826 827 828 829 831 832 833 834 835 836 836 837 837 837 837 837 837 837 836 836 835
754 752 751 755 757 758 763 766 763 763 768 775 773 768 766 769 770 771 770 767 769 772 769 769 777 788 789 786 790 792 789 789 788 791 795 795 794 795 795 798 801 801 802 806 808 807 807 807 808 809 810 812 813 815 817 818 819 819 820 821 821 822 823 824 825 826 827 828 829 831 832 833 834 835 836 837 837 838 838 838 837 837 837 836 836 835
753 754 751 752 756 758 761 764 762 761 768 774 770 766 766 767 770 771 768 768 773 773 771 772 774 784 793 788 787 791 789 790 790 791 796 795 794 794 794 796 798 798 800 804 807 806 806 807 808 809 810 812 815 816 818 819 820 820 820 821 822 822 823 824 825 826 827 828 830 831 832 833 834 835 836 837 837 837 837 837 837 837 836 836 835 835
750 755 754 751 754 758 759 761 762 759 766 771 767 765 767 768 771 772 769 771 774 773 773 774 773 779 787 785 784 788 790 792 792 793 796 794 792 793 792 794 795 795 797 801 803 805 808 808 808 810 811 813 815 817 818 819 820 821 821 822 823 823 824 825 827 827 828 829 830 831 832 833 835 835 836 837 837 837 837 837 837 836 836 836 835 835
747 753 755 751 753 756 755 756 760 760 763 767 765 765 766 767 770 769 770 772 775 777 775 774 776 779 785 786 784 786 790 793 794 795 796 794 791 790 791 791 791 792 794 797 800 804 808 809 809 811 811 813 816 818 819 820 821 822 823 823 824 824 825 826 827 828 829 830 830 832 832 834 835 835 836 836 837 837 837 837 837 836 836 836 835 835
747 747 749 749 751 753 753 754 758 758 760 762 764 765 766 768 769 770 772 772 778 784 777 772 775 778 785 791 789 789 790 790 791 793 793 792 789 787 789 789 791 793 795 798 802 805 808 808 810 812 812 815 818 819 819 821 822 823 824 824 825 825 826 827 828 829 829 830 831 832 832 833 834 835 835 836 836 836 837 837 837 837 836 836 836 835
746 745 745 746 747 748 751 755 755 755 758 761 764 767 771 774 773 775 776 775 783 788 776 770 773 774 781 786 786 785 782 779 783 790 791 790 788 787 788 789 791 793 795 798 802 806 808 809 811 812 813 817 820 820 821 823 824 825 825 825 825 827 828 828 829 829 830 830 831 832 832 833 834 834 835 835 836 836 837 837 837 837 837 836 836 836
747 748 748 745 744 745 750 755 755 754 756 759 761 766 775 780 779 782 783 785 791 786 774 771 771 774 779 779 777 775 771 769 773 782 787 788 787 787 786 788 791 792 794 797 801 805 808 810 813 814 815 818 820 821 823 824 826 826 827 827 827 828 829 829 829 830 830 831 831 832 832 833 834 834 835 835 836 837 837 837 837 837 837 836 836 836
747 749 749 745 744 742 747 756 760 759 757 756 759 765 776 785 789 792 790 788 787 780 778 778 774 775 774 769 769 768 766 765 764 770 777 779 782 784 785 788 791 793 796 799 803 808 810 811 814 815 817 819 821 822 824 826 827 828 828 829 829 830 831 830 830 830 830 831 832 833 833 834 834 834 835 836 836 837 837 837 837 837 837 837 836 836
752 753 749 747 747 740 740 749 757 761 756 753 755 759 769 780 791 796 790 786 784 779 781 780 776 776 772 767 768 765 761 760 760 765 771 774 779 782 786 789 792 796 799 802 806 811 814 815 815 817 818 820 822 824 825 827 828 829 830 830 831 832 832 832 831 831 832 832 832 833 834 835 835 835 836 836 836 837 837 837 837 837 837 837 836 835
753 757 749 745 747 740 738 741 744 750 753 751 748 749 758 766 776 784 780 780 782 779 782 782 777 776 773 772 772 766 763 761 761 767 772 777 781 783 787 791 794 798 802 804 807 810 815 817 817 819 819 820 822 824 826 827 829 830 832 832 832 833 834 834 834 834 833 834 834 835 835 836 836 836 837 837 837 837 837 837 837 837 837 837 836 835
748 753 745 741 743 739 740 741 738 745 754 754 749 752 757 754 759 775 780 778 778 777 780 780 779 777 773 773 772 768 767 765 764 769 775 781 785 786 790 791 793 798 802 805 807 809 813 815 817 821 820 820 823 824 826 828 830 831 833 834 834 835 835 835 836 836 836 836 836 836 836 836 837 837 837 837 837 837 837 837 837 837 837 837 836 836
745 749 745 743 744 738 738 741 739 742 750 756 756 755 753 747 751 770 785 786 781 778 776 775 778 780 775 773 772 770 770 769 770 773 777 782 785 786 789 791 794 798 802 806 809 811 814 814 818 822 820 821 824 825 826 828 830 832 833 834 835 836 837 837 837 838 837 837 837 837 837 837 837 837 837 837 837 837 837 837 837 837 837 837 836 836
742 747 746 743 744 740 736 738 739 737 741 752 757 750 748 753 754 760 776 785 783 778 775 776 781 780 774 774 775 774 775 774 774 776 779 782 784 787 789 791 794 797 800 805 808 812 815 817 821 824 822 823 826 827 827 829 831 833 834 835 836 837 838 838 839 838 838 838 838 838 838 838 838 838 837 837 837 837 837 837 837 837 837 837 836 836
738 745 749 741 740 741 738 740 743 742 740 743 746 741 745 759 762 762 771 778 780 779 776 778 784 778 769 770 775 776 777 777 775 777 780 781 782 785 789 791 794 797 800 803 807 810 814 818 822 825 824 824 826 828 829 831 832 834 835 836 837 838 839 839 839 839 839 839 838 838 838 838 838 838 838 837 837 837 837 837 837 837 837 837 836 836
734 742 749 741 737 740 740 743 745 746 745 741 740 741 745 750 752 757 764 764 767 775 775 776 782 775 761 762 770 772 771 772 773 775 776 777 779 783 786 789 793 797 800 803 805 808 811 816 822 825 825 825 827 828 830 832 834 835 836 838 838 840 840 840 840 839 839 839 838 838 838 839 839 839 838 838 838 838 838 838 838 837 837 836 837 836
734 740 746 743 742 742 741 741 738 740 745 744 743 746 747 748 747 751 759 759 758 767 773 774 773 766 756 754 759 761 761 762 764 768 771 773 776 781 785 788 792 797 801 804 807 808 810 814 821 825 826 827 827 829 831 833 834 836 837 839 840 841 841 841 840 840 840 839 839 839 839 840 840 840 840 839 839 839 839 839 838 837 837 837 837 837
734 739 742 744 745 743 738 735 731 732 737 738 741 743 742 746 750 755 763 764 760 761 767 769 765 760 757 755 752 751 752 754 757 764 769 772 777 782 784 788 792 796 800 805 808 809 811 815 820 824 826 827 828 830 832 833 835 837 838 840 841 841 842 842 842 841 841 840 840 840 841 842 842 841 841 840 840 840 839 839 839 838 838 837 838 838
731 736 741 744 744 740 736 736 733 730 731 735 737 739 741 743 745 751 758 761 763 765 765 766 764 759 760 761 756 750 750 753 759 765 770 775 780 783 786 789 793 796 800 805 808 810 812 816 820 823 825 827 829 831 832 833 835 837 839 841 842 842 843 844 843 843 842 842 842 842 842 843 843 842 841 840 840 840 840 840 840 840 839 838 838 838
729 734 740 743 743 740 737 737 735 731 734 739 737 737 740 740 738 742 748 752 760 764 763 765 766 761 760 763 758 753 754 757 762 768 772 777 782 785 788 791 794 798 801 805 809 812 814 816 819 822 824 827 830 831 831 832 835 837 840 842 843 843 844 845 845 844 844 844 843 843 844 844 843 843 842 842 842 842 842 842 841 841 840 840 839 839
728 735 738 742 748 749 744 743 742 738 735 735 734 735 736 736 741 746 750 752 754 752 753 758 762 761 761 762 758 756 758 761 766 771 774 778 783 786 789 791 794 797 801 804 809 812 814 816 819 821 824 827 830 831 831 832 835 837 840 843 843 844 845 846 846 845 845 845 844 844 844 844 844 844 843 843 843 843 843 843 843 842 842 841 840 840
728 735 735 737 745 749 746 743 740 737 734 732 732 734 734 736 741 744 749 754 752 750 751 749 754 764 766 762 760 760 762 765 768 772 776 779 783 786 790 792 795 797 800 804 807 811 814 816 819 822 825 828 830 830 829 832 835 838 841 844 844 845 846 846 847 847 846 846 846 845 845 845 845 845 844 844 844 845 845 844 844 844 843 842 841 841
728 733 731 731 733 734 733 732 731 731 733 735 734 734 733 736 737 739 747 750 746 751 752 744 748 765 769 764 761 763 766 769 770 773 776 779 782 786 790 793 796 800 803 805 806 809 813 815 819 823 826 829 830 829 829 832 836 839 842 844 845 846 847 847 848 848 848 848 847 847 847 847 847 846 846 846 846 846 846 846 846 845 845 844 843 842
728 731 730 729 730 728 727 729 732 732 730 732 734 734 735 738 739 740 743 741 740 747 750 748 751 757 761 763 761 761 765 768 770 773 775 778 781 785 790 793 798 802 806 808 809 810 812 815 820 825 828 830 830 829 831 834 836 839 842 844 846 846 847 848 849 849 850 849 848 848 849 849 848 848 848 848 848 848 848 848 848 847 846 846 845 844
723 729 731 732 732 732 733 735 736 734 732 732 733 732 733 739 740 737 736 737 740 740 739 747 751 746 748 756 755 755 759 762 767 772 774 778 782 786 790 794 798 802 805 809 811 813 814 816 821 826 830 831 830 829 832 835 838 840 842 844 846 847 848 849 850 850 851 850 850 850 850 850 850 850 850 850 850 850 850 850 849 849 848 847 847 846
720 725 729 730 732 737 741 741 739 738 737 737 738 737 733 735 736 733 733 737 737 734 734 744 749 743 743 747 748 753 759 761 768 774 776 781 785 787 791 794 797 801 805 808 812 814 816 818 823 827 830 831 829 829 833 836 838 841 843 845 847 848 849 850 850 851 851 851 852 852 852 852 852 852 852 852 852 852 852 851 851 850 850 849 849 848
720 727 732 729 732 740 745 745 744 741 738 738 744 748 740 735 735 732 732 736 737 736 739 746 750 748 745 745 748 755 760 763 770 775 777 781 784 787 791 794 797 801 804 808 812 814 817 820 823 826 828 830 830 830 833 836 839 841 843 846 847 849 850 851 851 852 852 852 853 853 853 853 853 854 854 854 854 853 853 853 852 852 852 851 851 850
718 731 737 730 732 740 744 746 744 740 738 738 741 747 743 737 735 732 730 734 735 735 742 749 749 746 746 747 751 757 761 765 771 774 777 780 782 785 790 794 797 801 804 808 811 814 817 820 822 824 828 830 830 830 834 837 839 842 844 847 849 850 851 852 852 853 853 854 854 854 854 854 855 856 856 856 855 855 854 854 854 854 854 853 853 852
718 726 732 730 732 738 742 744 740 734 736 737 736 742 743 738 736 734 733 735 732 729 738 741 735 733 740 748 754 758 761 764 767 769 772 776 780 784 787 792 797 800 804 808 812 815 816 818 820 824 828 830 831 832 836 838 840 843 846 847 849 851 852 853 853 854 854 855 855 855 855 856 856 857 857 857 856 856 855 855 855 855 855 855 854 853
717 719 726 729 729 735 741 742 739 735 736 737 740 746 746 742 740 736 736 738 735 732 735 733 728 731 739 745 750 753 755 757 760 763 767 772 777 782 787 791 796 800 804 808 811 813 815 816 820 825 828 831 833 835 838 840 842 844 847 849 850 852 853 854 855 855 856 856 856 856 857 857 858 858 858 858 857 857 857 857 857 857 857 856 856 854
716 719 730 733 730 734 740 739 739 739 736 737 743 745 744 745 745 742 743 744 742 741 740 735 733 735 736 739 744 749 752 756 761 765 769 772 775 780 787 792 794 797 801 806 809 811 813 816 821 825 829 832 834 836 838 841 843 846 848 850 851 852 854 855 856 857 857 857 858 858 858 859 859 859 859 858 858 858 858 858 858 858 858 858 857 856
714 719 728 736 737 735 736 736 736 736 736 738 743 744 744 747 747 744 742 741 741 743 741 735 734 735 736 740 747 751 756 761 766 769 771 773 775 778 782 787 791 794 798 802 806 810 813 817 821 825 829 832 835 836 838 841 844 846 848 850 851 853 855 856 857 858 859 859 859 859 860 860 860 860 860 859 859 859 859 859 860 860 860 860 859 858
711 714 718 730 741 738 732 732 731 729 733 737 737 738 738 739 738 734 731 732 736 740 739 736 736 738 741 746 751 754 758 765 773 777 775 774 776 778 779 782 788 794 799 803 807 811 815 819 822 825 829 832 834 836 838 842 844 846 849 851 852 853 855 856 858 859 860 860 860 861 861 862 861 861 861 861 860 860 861 861 861 862 861 861 861 860
712 714 711 720 737 741 733 731 732 730 729 726 726 729 730 730 731 729 726 728 732 736 736 735 737 740 744 750 754 756 760 767 774 778 776 775 778 780 782 786 790 795 800 805 809 812 817 820 823 826 829 831 834 836 839 842 844 847 851 853 853 854 856 858 860 860 861 862 862 862 863 863 863 862 862 862 862 862 862 863 863 863 863 862 862 862
716 718 714 717 732 739 730 726 732 732 725 721 724 729 731 730 730 730 728 724 724 730 733 733 737 741 743 746 749 751 756 763 768 770 772 775 778 781 785 790 794 799 803 807 810 812 817 821 824 828 830 832 835 838 841 843 845 848 851 854 855 856 858 859 861 861 862 863 863 864 864 864 864 864 863 863 863 864 864 865 865 865 864 864 864 864
717 719 720 720 728 733 726 724 730 728 722 724 728 731 731 729 728 731 729 719 716 723 728 730 734 738 739 742 744 743 745 748 751 758 766 772 777 783 786 789 794 799 805 810 813 815 818 822 825 828 831 834 837 840 843 845 847 849 852 855 856 858 859 860 861 862 863 864 865 865 865 865 865 865 865 865 865 866 866 866 866 866 866 865 866 865
722 722 724 723 724 728 726 725 728 722 719 725 730 729 729 728 728 729 723 716 716 719 720 724 730 733 734 736 737 736 737 738 742 753 765 772 778 784 787 790 794 798 803 808 812 816 819 823 826 829 832 835 839 842 845 847 848 850 852 855 858 859 860 861 862 864 865 865 866 866 867 868 867 867 867 867 868 868 868 868 868 867 867 867 867 867
724 725 726 725 727 729 726 724 726 722 718 725 730 730 727 725 724 722 720 721 722 718 716 720 725 729 732 734 735 739 742 743 747 757 767 773 778 783 788 793 797 801 805 809 812 815 819 823 828 830 833 837 840 843 846 847 849 851 854 857 859 860 861 862 863 865 865 866 868 868 869 870 870 869 870 870 870 870 869 869 869 868 868 868 868 868
715 718 722 726 730 733 731 731 729 721 716 721 725 726 725 721 719 719 722 724 722 717 719 722 722 726 732 736 740 744 746 748 754 761 768 774 779 784 789 793 797 802 807 811 814 817 819 823 828 831 835 839 841 844 847 848 850 853 855 857 860 861 862 863 864 865 866 868 869 871 871 872 872 872 872 872 872 871 871 871 870 870 870 869 869 869
708 710 718 723 723 724 724 724 722 718 719 721 719 719 721 721 721 722 722 722 720 719 721 723 724 727 732 737 743 746 746 751 757 761 768 775 779 784 790 794 798 802 807 810 814 818 820 823 828 832 836 839 842 845 847 848 851 854 856 858 860 861 862 863 865 866 868 870 871 873 873 873 873 873 874 874 873 873 872 872 872 872 871 871 870 870
708 711 715 714 717 722 719 717 719 724 727 727 724 724 724 723 724 724 721 720 720 720 721 724 727 730 734 739 744 746 748 753 757 762 768 774 779 785 789 794 798 802 807 811 814 818 820 823 827 832 836 840 843 845 848 850 851 854 856 858 860 861 862 864 865 867 870 871 873 874 874 875 875 875 875 875 874 874 874 874 873 873 873 872 871 871
718 719 715 712 718 726 724 723 728 729 728 727 728 728 727 725 725 725 722 721 721 720 721 725 728 732 738 741 744 747 751 754 758 765 770 774 780 786 790 794 800 803 807 811 814 817 821 824 827 832 836 840 844 846 849 851 852 854 856 858 860 862 863 865 867 869 871 872 874 874 875 876 876 876 877 876 876 875 875 875 875 875 874 873 873 872
720 719 718 717 718 716 716 725 732 730 728 730 729 727 728 727 726 725 722 721 721 722 724 727 730 736 742 744 745 749 753 755 759 766 771 775 781 786 790 795 800 803 807 810 813 817 821 824 828 832 836 840 843 846 849 851 853 854 857 858 860 862 864 866 868 870 871 873 874 875 876 877 877 877 877 877 877 877 877 876 876 876 875 875 874 874
718 716 718 722 720 716 719 729 734 731 731 732 729 727 728 727 726 725 723 722 723 725 727 729 734 739 743 745 747 750 755 758 761 766 772 776 780 785 790 794 799 803 807 810 813 817 820 824 828 832 836 840 843 846 849 851 854 856 857 859 861 863 865 867 869 870 872 873 874 876 876 877 877 878 878 878 878 878 878 878 877 877 877 877 876 876
719 716 718 721 722 721 723 728 731 728 726 728 729 729 730 728 726 727 726 725 727 728 730 734 737 740 743 746 748 750 755 761 764 766 772 778 781 785 790 794 798 803 807 811 815 818 821 825 829 832 836 840 843 846 849 852 854 856 858 860 862 864 866 868 869 871 873 874 875 876 877 877 878 878 878 878 879 879 879 879 879 879 879 878 878 878
718 717 720 719 714 713 714 718 722 719 716 720 726 728 729 729 728 727 727 728 728 730 732 736 739 742 744 746 748 751 756 762 766 768 772 777 782 786 790 794 799 803 808 812 815 819 822 826 829 833 836 840 843 847 849 852 854 856 858 860 862 864 866 868 870 872 873 874 875 876 877 877 878 878 878 879 879 880 880 880 880 880 880 880 879 879
720 719 719 714 709 711 714 718 721 719 716 720 726 727 728 729 727 727 728 728 729 730 732 735 740 744 746 748 750 752 755 761 767 770 773 777 782 786 790 794 798 803 808 812 815 819 823 826 830 833 837 840 844 847 849 852 854 856 859 861 863 865 867 868 870 872 873 874 875 876 876 877 878 878 879 879 879 880 881 881 881 881 881 880 880 880
Wind_Speed
6 6 8 9 8 9 9 8 5 4 6 9 7 6 5 4 4 2 2 1 2 5 4 4 6 9 11 12 10 10 9 7 8 7 9 13 12 10 5 5 4 3 5 8 9 12 14 14 14 12 12 11 10 10 12 11 10 11 11 11 10 8 8 10 9 7 6 6 7 7 6 6 7 7 7 7 6 6 6 5 5 5 5 4 4 4
6 9 9 6 6 10 10 7 6 5 5 6 7 8 5 4 4 2 2 1 1 4 2 2 7 9 10 11 9 9 7 5 5 8 13 13 10 9 7 2 2 1 5 4 3 11 14 13 13 13 13 12 11 11 12 12 12 12 11 12 12 10 10 9 7 8 8 8 8 7 7 6 6 7 7 7 7 7 7 7 7 6 6 6 5 5
8 8 6 7 7 10 9 7 7 6 5 3 4 7 6 4 1 2 1 3 1 2 2 4 7 6 4 4 6 7 5 3 5 9 11 13 12 10 8 7 4 3 5 1 4 10 13 12 14 14 14 13 12 13 13 13 14 14 13 14 14 10 9 9 8 9 9 9 8 7 7 7 8 9 9 9 9 9 9 9 9 9 9 8 7 6
7 5 8 9 9 12 9 9 9 6 4 2 3 6 6 3 1 3 1 4 3 2 3 6 5 4 3 4 6 6 6 5 8 10 9 10 11 9 9 8 8 9 7 5 5 9 12 12 14 13 13 14 13 13 13 13 14 15 14 13 13 10 10 11 9 9 9 8 7 6 7 9 10 11 11 10 10 10 9 9 9 10 11 10 9 8
4 5 11 10 11 14 11 10 12 9 5 2 2 3 4 4 2 1 1 2 1 2 5 7 5 3 4 5 6 5 6 6 8 11 9 9 9 8 8 8 9 10 8 7 5 8 12 12 13 13 13 14 13 13 13 13 15 17 15 13 14 12 10 11 10 9 9 9 8 9 10 10 10 10 9 9 10 10 9 8 9 10 10 11 11 10
3 4 11 12 11 14 12 11 13 11 7 3 3 4 4 5 3 2 2 0 2 3 3 3 5 4 4 7 7 5 7 7 7 11 11 11 11 10 11 11 10 8 7 7 5 5 9 12 11 11 15 15 12 12 14 15 16 18 17 15 15 14 13 12 11 10 10 9 10 11 9 8 7 7 7 7 7 7 7 8 8 9 10 10 11 11
3 5 10 13 12 13 12 10 11 12 8 5 5 6 5 3 3 2 2 1 2 3 1 1 5 3 4 8 9 8 9 9 8 12 12 11 12 12 13 13 12 10 7 7 7 6 7 11 11 11 14 16 12 14 19 19 19 19 19 18 17 16 16 13 12 11 10 11 11 8 6 5 6 6 6 5 5 5 7 7 6 8 9 9 9 9
6 9 9 12 13 12 11 9 9 11 9 4 5 9 7 4 3 2 1 0 0 2 0 1 2 2 3 7 9 10 11 10 10 12 12 12 13 13 14 14 13 12 10 10 10 8 5 8 13 12 13 16 15 18 22 22 21 21 20 21 19 18 18 15 13 12 11 11 10 8 8 8 8 8 7 5 5 5 5 6 6 7 7 8 8 8
6 11 10 12 12 9 8 7 9 11 7 3 7 9 7 5 4 2 1 1 2 2 4 4 3 4 2 3 8 11 11 11 12 13 12 14 16 15 16 16 14 14 13 12 11 10 8 8 12 14 16 19 20 22 24 23 23 22 21 20 20 19 18 16 15 14 12 12 11 11 10 9 7 7 6 4 4 4 4 5 6 6 7 8 9 9
3 9 10 12 10 7 7 9 12 12 5 5 9 8 4 3 3 1 2 2 1 3 7 6 7 6 2 3 8 10 10 11 11 12 13 14 17 17 16 16 14 13 12 11 10 10 13 14 15 18 21 21 19 21 24 24 22 22 20 19 19 18 16 15 14 14 13 12 11 10 9 7 6 5 5 4 4 4 4 5 6 6 7 8 8 9
1 4 7 8 6 6 8 9 12 11 7 9 10 7 5 2 2 1 0 0 2 6 4 7 8 7 4 4 8 8 9 14 13 12 14 14 16 17 15 15 14 14 12 12 12 11 14 17 16 19 23 21 19 21 23 22 21 21 19 18 18 17 15 15 13 13 13 12 10 9 7 7 6 5 5 5 5 5 5 5 6 5 6 7 7 8
3 5 5 3 3 7 9 9 8 8 10 11 7 7 6 3 2 1 1 1 5 6 2 6 8 8 6 4 7 9 10 16 16 14 17 18 17 17 14 14 15 14 12 13 13 11 14 17 14 16 21 21 21 23 22 21 20 20 19 18 18 17 15 15 13 12 11 10 9 8 7 7 6 6 5 5 5 5 5 5 5 5 5 6 6 7
4 4 2 2 4 9 11 9 6 5 9 10 7 8 8 5 4 4 4 4 6 3 2 2 6 6 5 2 7 13 13 16 17 15 20 22 20 18 14 13 13 13 12 11 10 8 11 15 14 16 20 20 20 22 22 21 20 19 18 17 18 17 15 14 13 11 11 10 9 9 8 8 7 6 6 6 5 5 5 5 5 5 5 6 7 8
4 0 2 5 5 8 12 12 9 7 9 11 10 11 10 7 7 8 7 4 4 2 2 1 4 4 2 2 5 11 12 14 15 13 17 20 20 18 13 12 13 12 11 10 10 7 6 11 14 17 19 17 18 20 20 20 20 19 18 18 19 18 16 15 15 14 14 13 13 11 10 9 8 7 7 7 7 6 6 5 5 5 6 6 7 8
8 3 6 7 3 7 12 10 8 9 8 7 5 7 8 6 5 6 6 4 2 3 3 3 3 3 2 2 3 5 3 6 10 12 14 14 13 13 11 12 12 12 11 10 11 9 8 12 14 13 16 18 18 19 20 20 19 17 16 18 20 19 17 17 16 16 16 16 15 13 11 10 8 8 8 7 7 7 7 6 6 6 6 6 6 6
8 3 3 3 1 9 11 4 5 10 9 5 2 4 6 5 3 2 1 0 1 2 2 3 2 1 1 2 2 2 2 6 11 14 16 13 11 12 11 11 13 12 12 11 11 11 12 16 15 11 15 20 20 20 21 19 17 16 16 19 21 20 18 17 17 16 16 15 15 13 11 10 9 9 9 8 8 7 7 7 7 7 6 6 6 6
7 4 2 3 3 8 11 7 7 9 7 4 4 6 4 3 4 3 1 2 1 3 3 3 2 1 1 1 3 7 8 11 13 15 17 15 14 14 11 11 12 11 12 12 12 12 12 14 13 9 14 19 18 18 21 20 19 19 21 21 21 20 18 17 16 16 15 14 13 13 12 11 11 10 10 10 9 8 8 8 7 7 7 6 6 6
5 5 3 6 8 6 5 9 10 7 5 5 6 6 5 4 1 1 2 2 3 6 3 2 3 4 4 3 7 10 11 13 15 16 16 16 16 15 12 12 13 13 14 14 13 13 13 14 12 11 15 18 17 20 24 24 23 23 22 21 20 19 17 16 15 14 14 13 12 13 13 12 12 12 12 12 12 12 11 11 9 7 7 8 7 7
4 5 3 7 10 6 3 7 10 5 2 3 5 6 5 4 4 3 2 4 5 6 3 2 3 4 5 5 10 13 13 15 16 16 16 17 17 14 13 13 14 15 15 15 14 10 11 15 13 11 15 20 23 24 25 25 24 24 22 20 19 18 16 15 14 14 14 13 13 13 13 13 14 14 15 16 17 17 17 17 15 11 9 9 8 9
3 4 5 5 4 7 6 7 10 9 2 2 7 7 3 3 5 4 2 2 4 5 3 3 3 2 5 8 13 16 17 18 18 17 17 18 16 13 14 14 14 14 14 15 14 10 13 18 16 13 16 22 25 26 25 25 24 23 21 19 18 17 15 15 14 14 14 14 15 15 15 15 16 17 18 20 21 21 21 20 20 18 15 12 11 11
1 3 5 4 2 6 8 6 9 11 7 7 10 9 6 2 2 3 2 1 2 4 3 3 3 2 2 7 15 19 20 21 22 20 18 17 16 15 15 15 14 14 14 13 12 11 14 19 19 19 20 22 24 24 24 24 23 22 20 19 17 16 15 14 14 14 14 15 17 18 18 18 18 19 20 21 22 22 22 22 23 22 20 17 13 12
2 2 4 5 4 6 6 4 6 11 11 9 9 8 8 4 3 6 6 2 0 1 2 2 2 1 1 2 10 16 18 20 22 20 16 15 16 16 16 16 16 16 16 14 13 13 15 17 19 20 21 21 21 21 21 21 21 21 19 17 15 15 14 13 13 14 15 17 18 18 18 18 18 20 21 22 23 22 22 23 23 22 22 19 14 12
1 3 3 4 4 4 3 3 4 11 10 7 6 6 5 4 6 9 8 4 3 1 1 1 1 1 2 2 4 8 10 14 17 16 14 14 15 15 16 17 18 17 17 16 13 13 15 17 18 19 19 19 18 18 19 21 22 21 19 16 15 15 14 13 14 15 16 17 17 17 17 17 18 20 21 23 23 23 23 23 23 23 23 21 17 13
3 3 4 4 2 2 1 1 1 7 8 6 7 6 6 6 6 5 2 4 4 3 2 2 2 1 1 3 3 4 6 11 14 14 14 14 13 15 18 18 18 18 17 16 13 12 14 16 17 17 17 17 17 17 18 20 21 21 19 16 15 15 15 14 14 15 16 17 17 17 17 17 19 21 22 23 23 23 23 23 23 24 24 23 19 16
3 2 4 5 6 5 5 4 4 7 9 8 7 8 8 6 4 3 2 3 5 7 7 6 3 2 1 1 3 7 9 12 13 13 14 14 12 15 16 16 17 18 18 17 14 12 13 14 15 16 16 16 16 16 18 19 20 20 18 15 15 15 14 14 14 15 15 16 17 18 18 18 19 21 22 22 23 23 23 24 24 24 25 25 22 18
2 2 4 5 7 9 9 7 6 5 5 5 7 11 11 10 9 6 4 5 7 6 8 8 4 3 2 4 9 11 12 14 14 14 14 14 15 15 15 15 17 18 19 20 18 14 13 13 14 15 15 15 15 16 19 20 20 21 19 16 15 15 14 13 13 14 15 15 16 18 18 18 19 20 21 22 22 23 23 24 24 23 24 25 23 19
1 2 4 4 5 6 5 3 2 4 6 6 9 13 12 11 10 6 4 6 6 5 6 7 4 6 6 9 13 14 14 13 15 16 14 14 16 16 15 16 15 13 15 17 16 14 13 13 14 14 14 15 16 17 20 21 22 22 19 15 14 14 14 14 13 14 14 15 16 17 17 17 18 19 20 21 22 23 24 24 24 23 23 24 24 22
1 3 4 4 4 2 2 4 3 5 9 9 9 11 11 9 8 8 7 5 5 5 6 4 7 8 10 13 16 17 15 14 15 16 15 15 16 16 17 17 15 14 12 11 12 13 14 14 14 15 17 18 19 19 20 22 24 23 18 15 15 15 15 14 14 13 13 14 15 16 16 16 17 18 20 21 22 23 24 24 24 24 24 25 26 26
3 4 3 3 4 2 3 2 3 3 4 5 7 10 12 11 11 13 10 5 8 7 5 6 10 9 9 15 20 19 17 16 16 14 13 14 15 16 18 18 18 18 16 14 14 13 14 15 16 18 19 19 19 21 21 22 23 21 18 17 16 15 15 14 14 14 14 14 14 14 15 16 17 18 19 20 22 23 24 25 26 26 26 27 27 27
2 4 4 4 4 4 3 2 2 3 2 2 3 6 9 12 13 14 9 7 9 7 1 8 13 8 4 12 18 16 13 12 12 11 12 15 15 16 18 19 20 20 19 19 18 14 13 16 19 21 20 18 19 22 21 20 20 19 18 17 17 16 14 14 15 15 14 14 14 14 15 16 17 17 18 20 22 23 24 25 26 26 27 27 27 27
3 3 3 4 3 3 3 3 2 4 4 3 2 3 6 10 12 13 10 8 8 7 3 7 9 4 1 6 12 13 11 11 12 14 15 16 16 17 18 18 18 18 18 18 18 15 14 16 19 20 18 17 19 22 22 20 20 20 19 17 17 16 15 14 15 15 14 14 13 13 15 16 16 16 18 19 21 22 23 24 25 26 26 26 27 27
4 2 2 3 4 2 1 1 3 5 5 3 3 4 7 9 8 8 6 5 8 7 6 6 6 4 4 9 12 13 14 15 16 16 16 15 17 19 18 16 15 16 17 17 16 16 15 15 16 18 18 18 20 23 22 21 20 19 18 18 17 16 16 15 16 15 14 13 13 14 15 15 15 16 17 18 20 22 23 23 24 25 25 25 26 27
4 4 3 4 4 3 2 3 3 5 3 3 3 4 7 5 3 3 3 3 6 7 7 6 6 4 10 15 16 17 18 18 17 16 16 17 19 19 19 17 15 14 15 16 15 15 15 15 17 18 18 18 19 21 21 21 22 20 19 19 19 17 17 17 16 15 14 14 14 15 15 15 15 16 17 18 20 21 22 23 24 24 25 25 26 27
5 6 3 3 3 4 3 3 3 4 4 2 2 3 5 3 3 5 4 3 4 3 2 1 2 9 16 18 18 20 18 16 16 15 13 15 17 17 16 16 15 14 14 13 14 13 14 16 18 18 18 19 21 23 23 23 24 23 21 21 20 19 18 17 16 15 14 14 15 15 15 15 16 16 17 18 20 21 22 22 23 24 24 25 26 27
6 5 2 1 2 3 2 2 4 5 3 2 2 4 5 4 3 3 1 3 3 2 1 2 7 13 17 18 17 15 12 11 13 12 12 13 14 15 15 14 15 16 15 14 13 14 17 20 20 20 20 22 24 25 26 25 24 24 23 22 21 20 18 17 16 15 15 15 15 15 15 15 16 17 17 18 19 20 21 21 22 23 23 24 25 26
6 5 3 2 1 2 3 4 4 2 2 3 3 4 5 4 5 4 2 5 6 5 5 6 9 12 15 14 12 11 11 11 10 8 11 13 13 15 17 17 17 17 17 17 17 18 20 22 23 24 24 24 25 26 27 26 25 24 23 22 22 21 20 19 17 15 15 16 16 16 16 16 17 18 18 18 19 20 21 21 22 22 22 23 23 24
5 5 4 2 0 1 2 3 1 1 1 3 4 5 6 6 7 6 3 5 7 7 7 7 11 14 14 12 12 13 14 14 8 4 8 12 12 13 16 17 18 17 17 18 20 23 25 26 28 31 31 29 29 29 28 27 26 26 24 23 23 23 22 21 18 17 17 17 17 17 17 17 18 19 19 19 19 20 21 21 21 21 21 22 22 23
3 2 3 3 2 1 1 2 1 3 3 1 2 4 6 5 4 3 2 3 7 9 9 12 16 18 16 16 17 17 14 12 9 6 8 11 12 11 12 15 17 19 21 23 26 27 29 31 33 34 34 34 32 31 30 29 28 28 27 25 25 24 23 20 18 17 18 18 18 19 18 18 19 20 20 20 20 20 20 20 20 20 21 21 20 20
5 2 1 3 3 2 3 3 3 3 2 0 1 4 6 5 3 2 3 4 8 11 12 15 18 18 18 20 20 17 12 10 10 9 10 13 14 14 14 15 18 22 24 25 27 28 29 33 35 35 35 34 32 31 30 30 30 30 28 26 24 22 20 18 18 19 20 20 20 21 21 21 21 21 21 21 21 20 20 19 20 20 21 20 18 17
4 2 1 3 3 3 3 3 2 3 2 1 2 4 6 4 3 4 5 4 8 15 16 17 19 19 18 19 18 16 12 9 9 11 13 15 16 16 17 19 21 24 24 22 24 29 31 33 34 34 33 33 31 28 28 30 31 31 29 26 22 20 20 21 22 22 22 21 22 23 23 23 23 23 22 22 21 21 21 20 20 20 21 19 17 17
2 1 0 3 4 4 4 2 1 2 1 2 4 6 8 6 3 5 3 0 6 15 18 19 22 21 21 21 17 11 6 5 9 15 17 17 16 16 19 22 25 27 28 29 32 34 31 29 30 30 30 31 30 26 27 30 31 29 27 24 21 21 23 24 25 24 23 22 22 23 24 24 24 24 24 23 23 23 23 22 22 22 21 19 18 19
3 2 1 3 4 2 2 2 1 2 1 5 6 4 5 5 3 2 0 1 6 14 18 20 22 22 22 20 11 5 7 12 18 20 19 17 16 16 17 20 22 22 25 30 34 35 30 25 25 26 26 27 27 26 28 31 30 26 24 22 21 24 26 25 25 24 22 22 22 22 23 23 23 24 23 23 24 24 24 24 24 24 23 20 18 19
5 5 3 3 3 2 2 2 1 1 3 8 10 5 3 3 1 1 1 1 7 14 17 17 18 20 19 14 9 10 14 18 20 21 20 18 17 17 20 22 22 22 24 26 28 30 28 25 23 25 25 24 25 27 31 31 27 23 22 22 24 27 26 24 24 23 22 22 22 21 22 21 21 22 22 23 24 24 24 24 24 24 24 20 17 16
4 4 3 3 3 2 3 3 1 0 2 4 5 3 2 1 1 1 1 3 8 13 13 13 16 18 15 11 11 14 17 19 20 21 20 19 18 18 20 22 24 25 26 27 27 26 26 25 24 24 25 26 28 30 32 31 27 22 22 24 26 26 25 24 23 22 21 21 20 20 20 19 19 19 20 21 21 21 21 22 22 22 22 19 16 15
1 1 2 2 2 1 1 1 1 1 0 1 1 1 2 3 3 2 2 3 7 10 10 11 15 15 12 13 14 14 16 18 20 20 20 19 18 18 20 22 24 25 24 25 27 25 25 26 28 26 26 28 32 32 30 30 28 24 23 25 26 25 23 22 21 19 18 18 17 17 17 17 17 17 17 18 19 18 18 18 17 17 18 17 16 16
1 2 1 1 1 1 1 1 1 1 1 1 2 1 3 4 3 3 3 4 6 8 9 10 10 11 12 13 14 13 15 19 20 19 19 19 17 18 21 22 23 24 24 25 25 24 25 29 31 29 26 25 29 31 30 28 28 27 26 27 25 23 22 21 19 18 17 15 15 15 15 13 14 14 14 15 16 17 17 17 15 14 15 15 15 16
1 2 1 2 3 4 2 0 1 1 2 2 2 1 1 2 3 3 4 5 5 7 9 9 10 12 12 12 13 15 17 20 21 18 18 18 17 17 20 22 22 24 25 26 26 28 29 29 28 27 25 24 26 30 30 27 26 27 28 27 24 22 21 19 18 17 16 14 14 13 12 11 11 12 12 13 14 14 15 16 14 13 14 14 14 15
1 1 1 2 3 3 1 1 1 2 2 2 2 1 0 1 1 1 2 4 6 8 9 10 12 13 11 11 15 18 18 19 20 18 16 15 15 16 19 23 25 24 24 25 28 30 30 27 26 26 25 24 25 29 29 27 26 28 28 26 24 22 20 19 17 16 15 14 12 11 11 11 11 10 10 11 11 11 11 12 13 13 14 15 15 14
1 1 1 3 3 1 1 1 1 1 2 2 2 1 1 1 1 4 5 7 10 11 11 12 12 12 11 12 15 18 19 17 18 18 17 14 14 16 20 23 25 25 24 25 28 29 27 26 26 26 25 25 27 29 30 28 28 28 26 25 24 22 20 18 17 15 14 13 11 11 11 10 10 10 9 9 10 10 10 11 11 12 12 14 15 15
1 2 2 3 2 1 1 3 4 2 1 2 3 3 3 3 4 7 8 9 12 13 14 14 12 11 13 15 15 17 18 16 17 19 18 15 15 19 23 24 24 24 24 25 26 27 27 27 27 27 27 28 30 30 30 30 29 27 25 24 23 21 20 18 16 14 13 12 10 10 10 9 9 10 9 8 8 9 9 10 11 11 11 11 13 14
1 1 1 1 1 1 0 3 4 1 1 2 3 3 3 4 7 9 10 11 12 14 15 15 14 12 13 14 15 18 18 16 18 19 16 15 19 24 25 26 25 24 24 25 25 26 28 29 29 29 31 32 31 31 32 31 29 27 25 24 22 21 19 18 15 13 12 11 10 10 10 9 8 9 8 8 8 7 7 8 8 9 9 9 10 10
Wind_Direction
164 174 200 204 189 166 166 171 140 89 139 146 155 170 165 177 188 210 211 171 218 195 176 184 158 152 181 185 178 178 182 196 179 137 78 67 72 84 76 340 352 106 116 120 149 163 164 160 161 165 163 160 157 162 161 152 153 147 144 144 137 139 131 119 113 101 99 104 103 99 92 81 72 68 65 61 57 53 46 40 37 32 26 19 8 354
182 203 206 178 143 146 152 149 123 101 122 139 161 174 178 193 182 196 225 19 252 208 164 130 150 158 187 188 175 167 171 192 168 116 86 87 101 110 127 141 6 22 84 78 178 158 150 147 147 154 152 148 144 147 151 148 147 144 147 146 135 130 121 115 117 113 106 100 101 96 86 79 72 64 61 65 64 58 55 51 45 40 34 25 13 1
200 212 160 124 129 137 139 146 139 123 118 132 160 169 180 190 192 225 249 10 0 211 164 167 160 148 167 169 152 145 139 104 103 118 119 127 134 136 146 142 131 128 105 146 217 151 147 145 138 143 142 140 142 141 141 139 137 135 134 131 129 129 126 127 124 114 108 100 99 91 81 85 84 78 74 75 76 69 61 53 47 42 35 27 16 4
198 194 137 131 139 139 147 164 159 143 128 124 145 164 173 163 192 205 195 13 22 48 130 160 146 119 118 92 84 99 105 90 107 120 122 130 138 152 157 141 140 139 139 199 200 148 155 149 135 139 139 141 144 137 132 131 131 134 134 129 130 130 123 123 115 110 119 115 109 108 100 96 95 97 92 83 72 59 51 46 42 36 26 19 14 6
167 127 134 138 144 147 155 169 174 182 180 153 147 156 143 136 168 186 12 338 28 72 129 145 135 123 169 147 102 100 112 102 118 122 118 128 137 148 142 134 144 143 157 190 173 145 152 144 138 143 140 138 134 127 128 133 135 136 137 131 127 126 123 122 116 113 119 114 114 123 119 108 104 100 85 69 54 44 44 45 42 36 22 12 6 5
162 129 146 147 152 155 156 171 180 185 185 186 204 200 161 136 119 44 7 314 172 176 140 159 193 158 174 180 145 129 131 114 125 133 136 148 151 155 146 139 148 152 164 171 151 134 132 128 134 137 134 129 122 125 133 136 133 128 128 129 125 122 121 119 118 116 112 111 118 123 118 108 104 90 67 60 56 53 60 56 45 34 18 1 353 356
162 165 167 156 153 155 161 176 180 178 183 196 191 190 196 150 108 62 10 53 190 212 77 314 237 167 157 193 168 146 145 137 140 140 145 159 164 166 155 145 154 160 156 150 137 120 125 134 133 127 129 128 122 128 131 129 128 126 126 127 123 119 116 114 117 121 119 122 124 119 106 98 102 100 91 87 85 78 68 53 35 21 9 359 356 0
148 162 179 163 155 163 172 176 180 181 182 183 161 166 185 181 148 123 44 35 353 312 302 122 245 216 171 187 169 153 149 146 150 146 148 163 173 172 161 155 162 164 156 154 145 130 139 140 125 119 122 125 127 129 129 128 126 126 125 123 119 116 114 114 116 118 118 122 123 116 109 106 105 105 104 98 88 73 51 34 25 22 15 15 19 18
144 168 180 165 163 178 175 149 159 174 173 166 160 162 175 173 160 152 202 264 33 334 240 164 154 219 196 154 166 160 156 159 159 155 156 167 175 174 167 167 169 166 158 153 145 138 142 127 115 118 117 122 130 129 128 128 124 123 121 118 116 114 113 114 117 115 112 113 112 110 107 102 99 100 98 90 78 62 43 30 23 20 15 16 22 24
157 179 174 168 175 179 150 131 156 174 170 144 147 139 136 145 137 146 238 259 18 276 244 168 163 213 213 158 180 173 170 176 170 164 168 174 180 178 172 170 164 157 152 142 133 137 138 129 125 126 119 120 127 124 124 124 122 121 118 116 113 110 112 115 116 115 112 110 106 103 99 94 96 101 95 81 66 51 38 33 21 15 12 16 24 27
81 157 166 176 179 155 139 145 165 171 143 131 136 119 103 108 99 87 341 0 256 257 228 150 169 212 228 183 184 184 178 179 176 171 173 177 184 184 175 168 158 147 147 140 134 141 137 129 131 127 119 121 122 117 118 118 116 116 113 112 109 107 111 111 110 110 107 106 102 98 96 93 95 97 86 71 57 41 30 28 18 13 14 20 25 24
110 138 166 183 156 136 137 155 168 157 141 141 139 132 133 125 117 145 114 149 234 236 159 142 170 196 223 200 181 195 186 181 180 172 173 178 184 185 175 165 156 147 148 143 137 142 135 128 130 120 115 120 119 115 115 113 112 111 107 107 106 104 107 107 107 105 102 101 96 92 92 88 86 83 75 64 54 41 33 27 15 10 11 14 18 16
137 148 169 158 160 155 147 154 167 156 160 162 149 154 165 165 167 194 191 194 225 218 90 154 174 190 227 194 179 195 192 191 188 173 174 179 179 180 171 157 154 152 149 136 122 127 133 133 135 124 118 119 114 113 114 113 112 110 107 107 105 102 103 104 102 100 99 97 89 85 84 82 79 75 72 69 61 51 44 33 20 16 13 13 16 14
154 154 206 167 166 174 165 166 174 172 177 176 167 173 181 171 176 195 195 207 227 176 70 128 169 208 223 97 189 200 196 197 191 174 175 177 175 174 162 144 147 149 141 125 111 109 123 131 128 125 124 117 110 111 112 112 112 110 108 108 106 103 102 100 97 96 96 93 89 89 84 79 77 75 73 71 63 56 52 45 35 27 18 16 16 12
165 168 185 175 155 175 180 180 167 154 169 182 172 181 188 180 187 195 191 206 200 130 86 122 171 221 165 91 255 233 224 197 174 155 162 169 166 160 146 136 139 138 131 126 122 121 123 123 119 119 120 115 113 114 113 113 112 107 104 106 106 103 100 98 96 95 95 93 92 91 85 78 76 75 73 69 64 59 57 52 47 40 29 25 22 15
163 138 163 184 149 171 180 178 138 150 170 186 150 178 197 187 155 137 180 211 110 122 138 167 192 308 70 342 283 203 166 163 151 145 151 152 146 146 145 148 146 135 132 135 133 130 129 127 124 123 120 117 119 118 116 117 113 108 107 108 107 104 102 100 98 96 95 93 91 86 81 76 73 73 71 67 63 57 55 52 47 45 39 33 31 24
160 123 145 202 203 185 176 157 169 179 169 152 176 189 179 131 121 127 103 46 52 207 188 165 152 120 197 258 147 147 155 155 150 149 150 147 148 154 155 154 146 133 134 140 136 128 121 116 116 122 120 118 120 119 119 120 116 114 113 111 109 105 102 100 97 96 93 90 87 80 76 74 70 70 67 64 63 61 60 57 49 45 42 36 32 28
166 129 148 191 187 199 178 163 186 201 153 153 189 176 118 80 88 162 157 141 201 217 203 134 156 168 188 181 144 144 149 151 151 150 149 149 154 158 154 147 142 138 139 135 127 119 113 111 115 123 119 116 120 121 120 121 119 118 116 112 109 104 101 98 95 93 89 85 83 77 74 72 69 70 70 71 73 72 70 65 56 46 42 39 34 33
188 137 146 201 186 172 160 174 186 199 213 184 169 151 139 180 197 179 173 177 190 211 217 142 151 186 204 169 147 151 156 157 155 152 154 159 159 156 150 146 142 139 135 127 124 121 118 119 121 121 117 118 122 121 119 119 118 117 114 111 107 101 98 96 91 87 82 79 78 75 72 71 71 74 77 77 76 73 69 65 60 52 45 41 38 37
193 148 158 209 188 154 162 194 191 183 180 126 152 166 190 215 199 184 166 178 188 201 211 182 162 201 210 167 155 164 169 168 164 161 165 168 163 155 150 149 144 137 135 133 135 134 127 126 126 123 120 122 123 121 119 120 118 115 111 106 103 98 94 90 85 82 78 75 76 78 78 77 77 79 79 77 73 70 65 61 59 55 49 45 42 40
168 163 163 158 143 169 180 202 195 177 166 168 177 188 189 170 182 186 165 78 204 190 183 209 213 196 185 163 166 174 178 177 173 171 173 168 160 155 151 149 144 138 138 137 134 132 127 125 127 128 126 124 123 122 122 120 117 113 109 105 100 95 90 85 81 80 78 78 79 81 82 80 79 78 76 73 70 66 62 58 56 53 49 47 44 41
153 156 165 157 173 190 170 151 179 180 178 184 191 194 188 168 143 182 197 184 164 189 158 206 227 152 91 176 183 183 184 185 178 170 167 160 153 154 151 147 144 141 139 135 131 128 123 122 126 129 127 124 122 123 122 119 115 111 107 104 98 92 87 83 82 82 82 84 82 81 80 77 75 74 71 69 66 62 59 56 53 50 48 47 44 42
132 130 158 164 177 186 135 86 195 190 178 184 202 191 176 174 177 196 206 171 142 112 76 136 269 87 66 328 240 201 185 181 174 160 152 150 149 149 146 144 143 140 137 133 130 128 125 126 129 127 124 123 123 124 121 117 114 111 107 103 97 93 91 87 86 86 85 85 82 79 78 73 71 70 68 65 62 59 58 55 52 49 48 48 47 44
157 144 164 147 127 209 218 35 224 187 171 188 206 182 174 192 195 202 192 136 164 194 176 204 246 163 96 335 279 197 148 156 162 152 146 144 142 144 145 143 141 138 135 132 131 129 127 126 127 125 124 124 126 125 119 115 112 110 106 104 100 96 94 92 90 87 85 83 81 78 75 71 68 66 65 64 61 59 59 57 55 52 51 51 49 48
168 168 183 162 146 178 191 166 180 192 189 198 193 179 189 179 138 124 112 142 203 201 192 213 223 146 102 350 185 170 152 155 158 150 147 143 138 143 145 142 142 141 139 139 137 134 130 126 124 125 125 127 130 126 118 112 109 108 108 107 103 99 97 94 91 88 84 82 79 76 72 70 67 65 64 64 62 60 60 60 58 55 54 54 52 51
170 177 188 180 168 179 185 180 185 179 175 190 180 181 191 175 159 159 147 186 214 184 181 213 209 127 148 162 166 170 165 161 157 149 147 145 143 145 145 145 148 148 147 146 142 137 133 127 123 124 126 132 134 125 116 111 109 110 111 109 105 101 99 96 93 89 85 81 78 75 71 68 66 65 64 64 63 62 62 62 60 57 56 56 55 53
108 182 189 193 184 183 177 156 129 147 161 184 186 185 189 179 168 157 159 199 196 149 186 213 151 136 172 174 172 171 163 157 156 153 150 150 148 146 147 148 146 144 145 146 142 137 132 126 122 123 126 131 129 118 110 111 113 115 113 108 105 104 103 101 97 91 86 82 79 75 72 69 67 66 65 65 66 66 66 65 63 61 59 58 57 56
121 196 198 194 188 173 113 101 118 170 185 189 183 182 184 175 166 179 201 188 138 157 208 183 131 158 182 179 179 174 163 159 161 160 157 153 150 146 146 145 139 134 134 135 138 135 128 125 124 125 129 131 124 112 107 112 118 120 116 110 109 109 108 105 100 95 89 84 81 77 75 74 71 69 69 70 71 71 70 69 67 65 63 62 61 59
161 189 200 193 177 127 70 100 140 165 179 178 181 183 182 177 181 199 209 161 148 199 218 153 167 186 181 183 187 181 171 165 160 156 150 145 144 142 143 143 140 140 141 141 143 138 128 128 130 131 135 133 121 112 112 116 120 120 116 115 115 113 112 109 103 99 93 88 84 82 82 79 75 73 74 76 75 74 74 72 71 69 67 66 65 62
188 183 187 191 156 94 45 16 135 159 143 139 192 201 190 185 192 205 207 167 180 217 154 148 184 198 180 189 188 177 164 150 138 139 142 142 144 144 145 146 146 146 148 149 149 143 130 130 133 135 137 132 121 116 117 118 120 120 118 118 120 117 115 114 108 101 96 90 87 88 88 84 80 78 79 80 79 77 76 74 73 71 69 67 66 63
212 185 169 181 154 90 33 14 110 165 161 153 200 244 212 196 198 208 204 177 193 215 139 150 186 208 215 173 163 155 149 140 141 149 149 149 151 150 149 149 146 146 148 149 147 140 130 130 133 134 131 127 123 120 121 122 123 122 121 121 121 120 119 118 111 104 98 94 93 94 92 88 84 84 84 84 82 79 77 75 73 71 69 67 64 62
193 172 107 168 173 134 84 228 169 144 127 156 207 213 203 198 199 209 203 181 192 185 140 151 194 210 173 151 146 149 151 150 154 155 153 156 157 155 153 150 145 145 147 146 141 136 135 133 130 128 129 130 128 125 125 126 122 120 121 122 122 122 122 118 112 107 101 97 97 97 95 92 89 89 90 88 84 81 78 76 74 71 68 66 63 61
162 152 142 179 182 156 180 233 197 142 139 221 217 185 194 201 194 201 212 214 203 175 152 185 218 182 157 153 151 156 161 162 164 162 160 161 160 158 154 148 144 144 144 141 138 138 138 133 129 130 134 133 126 123 126 126 124 122 123 124 123 122 120 115 111 107 102 99 100 99 98 96 94 94 94 91 87 83 79 76 74 71 68 66 63 61
155 151 156 188 181 171 203 251 221 195 211 220 145 165 199 216 196 194 210 233 215 188 160 214 136 134 153 164 165 166 167 166 165 162 156 154 157 154 147 143 144 145 140 135 137 138 132 128 128 128 126 123 121 123 126 126 125 125 125 125 123 120 116 111 107 104 101 100 102 102 100 98 98 97 96 93 89 84 80 76 74 71 68 65 62 60
153 146 137 136 143 151 174 213 207 209 205 147 163 195 205 218 204 187 269 268 228 242 269 183 150 152 164 172 169 164 157 146 147 149 144 146 150 145 141 146 151 148 142 140 143 140 132 130 129 124 121 123 126 126 126 125 125 125 124 124 122 118 115 110 106 103 103 103 103 103 101 100 100 99 96 94 90 84 80 78 75 72 69 65 63 60
153 146 123 88 108 142 158 192 205 207 115 131 164 163 153 176 181 170 230 237 215 222 226 192 169 163 161 157 150 140 129 123 123 134 147 150 152 151 153 158 159 154 150 148 144 138 133 131 130 128 127 128 127 125 124 126 128 126 125 125 122 119 116 111 106 103 103 103 102 101 101 100 100 98 94 93 89 85 82 79 76 74 71 67 65 61
148 155 137 111 180 175 156 181 226 297 201 162 173 174 161 167 177 178 218 218 192 203 215 180 159 157 149 134 128 126 123 120 116 139 164 163 162 161 157 154 150 145 139 135 130 129 131 131 131 132 133 132 130 129 129 131 131 128 126 125 122 118 115 110 106 105 104 102 101 101 101 99 98 96 93 91 88 84 83 81 78 77 74 69 66 62
112 164 164 166 204 186 144 171 212 243 229 180 161 178 159 146 168 186 249 215 180 190 199 174 158 153 144 135 136 134 126 128 144 172 181 170 158 141 132 132 132 129 128 129 129 130 132 134 134 136 137 134 131 132 133 133 131 128 125 123 119 116 113 109 106 105 104 102 102 103 101 99 97 95 92 90 87 85 85 83 80 78 76 72 68 62
87 43 119 159 164 158 172 183 189 213 231 350 95 156 147 134 138 175 238 225 177 172 183 175 161 153 149 146 145 143 140 155 175 180 174 164 150 135 129 127 125 127 132 135 135 135 135 135 136 137 135 132 131 133 134 133 131 128 125 122 119 115 111 109 108 106 105 104 103 103 100 98 97 94 90 89 89 89 88 85 83 81 78 74 69 62
104 69 120 153 149 161 179 177 200 227 220 125 135 154 154 140 126 175 214 218 161 162 173 174 166 160 156 153 154 159 165 177 178 163 153 148 142 137 136 132 129 131 132 130 131 133 134 135 136 135 134 134 135 137 137 136 133 129 126 123 120 115 113 113 111 109 107 106 103 101 98 96 95 93 91 91 91 91 90 87 86 85 80 74 70 65
115 91 162 165 149 165 182 177 234 244 190 121 137 155 160 153 157 193 204 39 160 167 170 172 172 168 165 164 166 172 171 122 110 122 131 136 137 137 136 134 135 137 137 138 138 137 135 135 136 136 137 139 140 141 141 139 134 129 128 126 122 119 119 118 115 113 110 106 102 99 97 94 93 93 92 93 92 90 89 87 86 85 80 75 72 69
144 129 126 154 139 148 178 169 230 261 158 124 129 151 181 174 168 205 286 346 191 178 170 171 173 171 172 171 163 136 109 103 110 122 131 134 133 132 129 126 124 127 132 138 141 140 136 134 135 136 138 142 144 145 144 139 134 131 131 129 127 127 126 122 118 114 109 106 103 101 98 96 95 94 93 93 92 89 86 84 82 82 79 76 73 68
165 166 164 160 147 114 117 137 171 258 166 143 135 139 220 206 150 341 324 213 191 182 174 173 172 171 171 162 132 117 120 118 123 132 135 133 130 129 131 129 127 128 132 137 142 142 138 135 136 137 140 145 147 147 145 140 135 136 136 135 135 134 129 125 121 115 110 108 105 104 103 100 98 96 93 92 91 88 85 82 78 77 75 72 69 65
175 177 173 183 189 168 154 167 180 84 150 159 144 143 221 233 20 321 245 158 173 178 176 173 173 171 163 141 127 132 130 128 133 137 136 135 134 133 134 135 136 138 140 141 144 144 140 137 138 139 143 149 151 150 148 144 141 140 140 140 141 138 132 128 125 119 115 113 110 108 107 104 101 99 95 93 91 87 83 81 76 73 71 67 64 62
196 164 155 178 195 200 188 201 248 37 138 274 342 347 307 322 332 290 236 179 174 175 170 170 170 163 145 132 134 135 132 133 137 138 137 138 137 136 137 140 141 142 143 144 146 145 142 140 141 142 146 152 154 153 152 149 146 143 143 145 145 142 138 134 130 126 123 120 117 114 111 108 106 104 100 96 92 86 82 79 74 70 67 63 61 60
22 66 88 113 144 214 259 304 349 314 309 336 0 332 304 312 311 261 220 190 173 166 162 163 156 140 132 137 139 136 136 137 136 138 139 138 136 137 138 139 141 142 143 145 145 144 142 143 144 145 146 152 156 157 156 153 149 147 147 149 147 144 142 140 137 134 132 127 125 122 117 114 112 108 105 100 93 87 83 78 73 68 64 61 59 58
81 107 83 97 148 178 203 48 354 297 315 341 344 323 290 286 278 250 209 175 156 153 153 144 130 128 135 140 136 134 138 138 136 138 140 139 138 139 139 140 144 147 148 147 147 146 144 144 145 147 148 151 157 160 158 155 151 149 150 151 149 146 145 144 142 140 137 133 131 128 123 121 118 112 109 103 95 89 83 78 73 67 62 59 57 55
147 148 139 146 157 176 219 29 349 309 303 308 315 319 215 254 261 170 136 121 118 128 132 127 127 134 139 139 136 136 139 141 140 138 138 140 140 140 142 145 148 149 148 146 147 149 147 145 147 149 149 152 158 161 159 156 154 154 154 153 152 150 149 148 147 145 142 139 136 133 129 125 121 117 111 105 99 93 85 79 75 69 65 63 61 58
273 204 168 154 140 120 280 180 174 287 277 249 236 206 232 251 143 117 117 118 119 122 125 127 133 139 140 139 139 137 138 142 142 138 137 139 139 141 145 147 148 147 146 146 148 150 149 148 149 150 151 155 161 162 161 159 158 158 157 157 157 156 155 154 153 150 147 146 142 139 135 128 123 121 115 109 104 97 90 85 80 76 73 69 66 65
269 155 144 155 144 104 214 175 167 171 208 200 190 178 193 203 155 134 134 137 136 135 135 133 134 138 140 140 140 138 138 142 144 142 140 140 141 142 144 144 144 144 146 147 149 149 150 151 152 152 154 159 162 163 162 161 160 160 161 161 162 162 162 160 159 158 156 156 153 148 143 135 129 126 119 114 109 100 92 88 82 79 78 72 67 65
319 163 151 136 103 21 0 154 156 145 19 132 152 148 162 178 159 148 150 152 148 145 142 138 137 141 143 143 143 141 139 141 144 143 140 140 142 142 142 143 144 144 147 149 149 149 151 153 154 156 159 162 163 163 163 163 162 163 164 164 165 166 166 165 164 163 163 164 161 157 152 146 140 134 126 117 112 105 98 92 84 78 76 72 68 65